Veïnat del Far





Hora UTC 16:35
Temperatura 16.9 ºC
Humedad 87.0 %
Presión 1016.0 hPa
Pluja 0.0 mm
Velocidad viento 1.6 km/h
Dirección viento N

Datos diarios 2019-09-20



Hora UTC (invierno +1h; verano +2h)
Temperatura (ºC) Humedad (%) Presión (hPa) Velocidad viento (km/h) Precipitación (mm)
Hora UTC Aire Humedad Presión Vel. Dir. Vel. Max Dir. Intent. máx 5 min.
00:05 15.9 70.0 1016.7 3.2 N 3.2 0.0
00:10 15.8 68.0 1016.6 4.8 N 6.4 0.0
00:15 15.8 68.0 1016.6 4.8 N 6.4 0.0
00:20 15.8 69.0 1016.6 3.2 N 6.4 0.0
00:25 15.7 69.0 1016.6 3.2 N 4.8 0.0
00:30 15.7 70.0 1016.6 3.2 N 4.8 0.0
00:35 15.7 69.0 1016.5 1.6 N 4.8 0.0
00:40 15.7 69.0 1016.6 0.0 N 4.8 0.0
00:45 15.7 69.0 1016.6 0.0 N 3.2 0.0
00:50 15.6 69.0 1016.6 0.0 N 3.2 0.0
00:55 15.6 72.0 1016.6 3.2 N 4.8 0.0
01:00 15.4 74.0 1016.5 4.8 N 6.4 0.0
01:05 15.4 74.0 1016.4 4.8 N 6.4 0.0
01:10 15.4 74.0 1016.4 3.2 N 6.4 0.0
01:15 15.4 73.0 1016.4 1.6 N 4.8 0.0
01:20 15.4 74.0 1016.4 3.2 N 4.8 0.0
01:25 15.5 75.0 1016.4 4.8 N 4.8 0.0
01:30 15.3 76.0 1016.4 3.2 N 8.0 0.0
01:35 15.2 78.0 1016.3 6.4 N 8.0 0.0
01:40 15.1 79.0 1016.3 8.0 N 9.7 0.0
01:45 15.0 81.0 1016.3 8.0 N 9.7 0.0
01:50 14.9 82.0 1016.3 6.4 N 9.7 0.0
01:55 14.8 83.0 1016.3 8.0 N 11.3 0.0
02:00 14.8 83.0 1016.3 8.0 N 11.3 0.0
02:05 14.7 84.0 1016.2 8.0 N 11.3 0.0
02:10 14.6 84.0 1016.2 8.0 N 11.3 0.0
02:15 14.5 85.0 1016.2 9.7 N 11.3 0.0
02:20 14.4 86.0 1016.2 8.0 N 12.9 0.0
02:25 14.4 86.0 1016.2 6.4 N 12.9 0.0
02:30 14.4 86.0 1016.1 8.0 N 9.7 0.0
02:35 14.4 86.0 1016.2 6.4 N 9.7 0.0
02:40 14.3 85.0 1016.1 8.0 N 9.7 0.0
02:45 14.2 86.0 1016.2 6.4 N 9.7 0.0
02:50 14.2 86.0 1016.2 6.4 N 9.7 0.0
02:55 14.2 86.0 1016.0 6.4 N 9.7 0.0
03:00 14.2 86.0 1016.0 6.4 N 9.7 0.0
03:05 14.2 86.0 1016.0 1.6 N 8.0 0.0
03:10 14.2 86.0 1016.0 4.8 N 6.4 0.0
03:15 14.1 86.0 1015.9 1.6 N 6.4 0.0
03:20 13.9 86.0 1015.9 4.8 N 4.8 0.0
03:25 13.8 87.0 1015.9 3.2 N 6.4 0.0
03:30 13.8 86.0 1016.0 6.4 N 8.0 0.0
03:35 14.0 86.0 1015.9 3.2 N 8.0 0.0
03:40 14.1 86.0 1015.9 1.6 N 8.0 0.0
03:45 14.1 86.0 1016.1 1.6 N 8.0 0.0
03:50 14.1 86.0 1015.8 1.6 N 8.0 0.0
03:55 14.1 86.0 1015.9 0.0 NNE 0.0 0.0
04:00 1015.7 0.0
04:05 1016.0 0.0
04:10 1016.1 0.0
04:15 1016.0 0.0
04:20 1016.0 0.0
04:25 1016.1 0.0
04:30 14.3 80.0 1016.0 3.2 N 8.0 0.0
04:35 14.4 79.0 1016.0 1.6 N 8.0 0.0
04:40 14.3 79.0 1016.0 0.0 N 3.2 0.0
04:45 14.3 79.0 1016.0 0.0 N 1.6 0.0
04:50 14.2 79.0 1016.1 3.2 N 6.4 0.0
04:55 14.3 79.0 1016.1 3.2 N 6.4 0.0
05:00 14.3 78.0 1016.1 1.6 N 6.4 0.0
05:05 14.4 78.0 1016.2 6.4 N 8.0 0.0
05:10 14.5 77.0 1016.2 1.6 N 8.0 0.0
05:15 14.5 77.0 1016.3 1.6 N 4.8 0.0
05:20 14.4 77.0 1016.3 3.2 N 4.8 0.0
05:25 14.4 77.0 1016.3 1.6 N 4.8 0.0
05:30 14.3 76.0 1016.3 3.2 N 4.8 0.0
05:35 14.3 76.0 1016.3 1.6 N 6.4 0.0
05:40 14.3 76.0 1016.3 1.6 N 4.8 0.0
05:45 14.3 76.0 1016.4 3.2 N 3.2 0.0
05:50 14.2 76.0 1016.3 1.6 N 4.8 0.0
05:55 14.2 76.0 1016.4 1.6 N 3.2 0.0
06:00 14.1 76.0 1016.4 0.0 N 3.2 0.0
06:05 14.1 76.0 1016.4 1.6 N 3.2 0.0
06:10 14.0 77.0 1016.3 1.6 N 3.2 0.0
06:15 13.9 77.0 1016.3 3.2 N 3.2 0.0
06:20 13.8 78.0 1016.3 1.6 N 3.2 0.0
06:25 13.7 77.0 1016.5 1.6 N 3.2 0.0
06:30 13.7 78.0 1016.6 1.6 N 3.2 0.0
06:35 13.7 78.0 1016.6 1.6 N 3.2 0.0
06:40 13.8 78.0 1016.6 0.0 N 4.8 0.0
06:45 14.1 77.0 1016.8 1.6 N 4.8 0.0
06:50 14.2 77.0 1016.7 1.6 N 3.2 0.0
06:55 14.3 77.0 1016.7 3.2 N 3.2 0.0
07:00 14.4 77.0 1016.7 1.6 N 3.2 0.0
07:05 14.3 76.0 1016.9 1.6 N 3.2 0.0
07:10 14.3 76.0 1016.8 1.6 N 1.6 0.0
07:15 14.4 76.0 1016.9 0.0 N 1.6 0.0
07:20 14.7 76.0 1017.0 3.2 N 6.4 0.0
07:25 15.1 75.0 1017.0 0.0 N 6.4 0.0
07:30 15.4 73.0 1017.2 3.2 N 6.4 0.0
07:35 15.7 72.0 1017.3 1.6 N 6.4 0.0
07:40 15.9 72.0 1017.3 3.2 N 4.8 0.0
07:45 16.2 70.0 1017.4 3.2 N 4.8 0.0
07:50 16.3 72.0 1017.5 1.6 N 4.8 0.0
07:55 16.4 70.0 1017.5 4.8 N 6.4 0.0
08:00 16.4 71.0 1017.6 4.8 N 8.0 0.0
08:05 16.6 72.0 1017.5 3.2 N 8.0 0.0
08:10 16.6 73.0 1017.6 0.0 N 8.0 0.0
08:15 16.6 73.0 1017.7 3.2 N 6.4 0.0
08:20 16.7 73.0 1017.7 1.6 N 6.4 0.0
08:25 16.7 73.0 1017.6 4.8 N 6.4 0.0
08:30 16.7 74.0 1017.7 1.6 N 9.7 0.0
08:35 16.7 73.0 1017.7 1.6 N 9.7 0.0
08:40 16.7 73.0 1017.7 4.8 N 6.4 0.0
08:45 16.8 76.0 1017.7 1.6 N 8.0 0.0
08:50 16.8 76.0 1017.8 1.6 N 8.0 0.0
08:55 16.8 76.0 1017.8 1.6 N 8.0 0.0
09:00 16.7 74.0 1017.8 3.2 N 6.4 0.0
09:05 16.7 74.0 1017.7 3.2 N 4.8 0.0
09:10 16.8 75.0 1017.8 3.2 N 4.8 0.0
09:15 16.9 74.0 1017.8 3.2 N 6.4 0.0
09:20 17.1 76.0 1017.7 3.2 N 6.4 0.0
09:25 17.1 74.0 1017.8 1.6 N 6.4 0.0
09:30 17.1 72.0 1017.8 3.2 N 6.4 0.0
09:35 17.1 73.0 1017.8 1.6 N 11.3 0.0
09:40 17.1 74.0 1017.8 1.6 N 11.3 0.0
09:45 16.9 75.0 1017.8 0.0 N 9.7 0.0
09:50 17.1 75.0 1017.7 6.4 N 11.3 0.0
09:55 17.0 73.0 1017.8 1.6 N 11.3 0.0
10:00 17.1 72.0 1017.8 4.8 N 6.4 0.0
10:05 17.2 71.0 1017.7 4.8 N 6.4 0.0
10:10 17.2 70.0 1017.7 3.2 N 9.7 0.0
10:15 17.2 71.0 1017.8 3.2 N 9.7 0.0
10:20 17.4 71.0 1017.9 1.6 N 8.0 0.0
10:25 17.4 71.0 1017.8 3.2 N 6.4 0.0
10:30 17.4 73.0 1017.9 0.0 N 8.0 0.0
10:35 17.5 73.0 1017.8 6.4 N 11.3 0.0
10:40 17.5 74.0 1017.8 6.4 N 11.3 0.0
10:45 17.6 74.0 1017.8 1.6 N 8.0 0.0
10:50 17.7 76.0 1017.9 3.2 N 8.0 0.0
10:55 17.8 73.0 1017.7 1.6 N 6.4 0.0
11:00 17.9 74.0 1017.7 3.2 N 6.4 0.0
11:05 18.2 75.0 1017.6 3.2 N 9.7 0.0
11:10 18.2 73.0 1017.6 9.7 N 12.9 0.0
11:15 18.2 75.0 1017.4 6.4 N 12.9 0.0
11:20 18.2 74.0 1017.5 3.2 N 9.7 0.0
11:25 18.1 73.0 1017.4 4.8 N 8.0 0.0
11:30 18.1 74.0 1017.4 3.2 N 12.9 0.0
11:35 18.1 74.0 1017.3 8.0 N 14.5 0.0
11:40 18.1 73.0 1017.3 1.6 N 12.9 0.0
11:45 18.1 74.0 1017.2 1.6 N 11.3 0.0
11:50 18.2 72.0 1017.1 4.8 N 9.7 0.0
11:55 18.2 72.0 1017.1 6.4 N 9.7 0.0
12:00 18.3 73.0 1017.1 3.2 N 12.9 0.0
12:05 18.3 71.0 1017.1 4.8 N 12.9 0.0
12:10 18.3 71.0 1017.1 3.2 N 12.9 0.0
12:15 18.4 70.0 1017.1 1.6 N 12.9 0.0
12:20 18.4 70.0 1017.0 3.2 N 12.9 0.0
12:25 18.3 71.0 1017.0 6.4 N 12.9 0.0
12:30 18.4 72.0 1017.0 6.4 N 12.9 0.0
12:35 18.4 70.0 1017.1 6.4 N 12.9 0.0
12:40 18.5 71.0 1016.9 8.0 N 12.9 0.0
12:45 18.7 70.0 1017.0 6.4 N 12.9 0.0
12:50 18.8 70.0 1016.8 1.6 N 9.7 0.0
12:55 18.8 69.0 1016.9 8.0 N 11.3 0.0
13:00 18.8 69.0 1016.8 4.8 N 11.3 0.0
13:05 18.9 71.0 1017.0 9.7 N 12.9 0.0
13:10 19.1 70.0 1016.9 3.2 N 14.5 0.0
13:15 19.1 68.0 1016.6 8.0 N 12.9 0.0
13:20 19.0 69.0 1016.7 9.7 N 9.7 0.0
13:25 19.1 69.0 1017.0 1.6 N 11.3 0.0
13:30 19.1 68.0 1016.8 6.4 N 8.0 0.0
13:35 19.1 68.0 1016.5 3.2 N 11.3 0.0
13:40 19.2 69.0 1016.5 3.2 N 11.3 0.0
13:45 19.4 68.0 1016.6 3.2 N 9.7 0.0
13:50 19.6 68.0 1016.6 3.2 N 8.0 0.0
13:55 19.8 69.0 1016.7 6.4 N 8.0 0.0
14:00 19.9 67.0 1016.8 6.4 N 6.4 0.0
14:05 19.8 66.0 1016.7 1.6 N 8.0 0.0
14:10 19.8 66.0 1016.6 1.6 N 8.0 0.0
14:15 19.7 67.0 1016.5 1.6 N 11.3 0.0
14:20 19.7 68.0 1016.5 6.4 N 11.3 0.0
14:25 19.8 68.0 1016.5 3.2 N 8.0 0.0
14:30 19.9 68.0 1016.3 3.2 N 9.7 0.0
14:35 19.8 68.0 1016.4 4.8 N 9.7 0.0
14:40 19.9 69.0 1016.3 3.2 N 9.7 0.0
14:45 19.9 70.0 1016.0 6.4 N 8.0 0.0
14:50 19.9 71.0 1016.1 1.6 N 8.0 0.0
14:55 20.0 71.0 1016.0 4.8 N 8.0 0.0
15:00 20.1 72.0 1015.8 8.0 N 9.7 0.0
15:05 20.0 71.0 1015.6 3.2 N 11.3 0.0
15:10 19.8 72.0 1015.7 3.2 N 16.1 0.0
15:15 19.6 73.0 1015.7 3.2 N 16.1 0.0
15:20 19.7 75.0 1015.8 3.2 N 11.3 0.0
15:25 19.6 74.0 1015.7 3.2 N 11.3 0.0
15:30 19.6 76.0 1015.8 4.8 N 11.3 0.0
15:35 19.4 76.0 1015.7 4.8 N 12.9 0.0
15:40 19.0 78.0 1015.7 4.8 N 11.3 0.0
15:45 18.8 79.0 1015.9 3.2 N 14.5 0.0
15:50 18.4 80.0 1015.9 8.0 N 16.1 0.0
15:55 18.3 81.0 1015.8 3.2 N 11.3 0.0
16:00 18.1 81.0 1015.9 1.6 N 11.3 0.0
16:05 17.9 83.0 1015.8 6.4 N 11.3 0.0
16:10 17.8 83.0 1016.1 1.6 N 8.0 0.0
16:15 17.6 84.0 1016.1 0.0 N 8.0 0.0
16:20 17.4 85.0 1016.1 1.6 N 8.0 0.0
16:25 17.2 85.0 1016.0 1.6 N 8.0 0.0
16:30 17.1 86.0 1016.0 1.6 N 8.0 0.0
16:35 16.9 87.0 1016.0 1.6 N 6.4 0.0
Máxima 20.1 87.0 1017.9 9.7 N 16.1 0.0
Mínima 13.7 66.0 1015.6
Total 0.0